2019-089H (44859 NORAD) Tracking and Keplerian Element Data

This shows tracking and keplerian element data for the satellite.

Feedback or suggestion? Click here.




ElementValue
Catalog44859
Name2019-089H
Epoch Orbit622
Epoch Day21.96916913
Epoch Year2020
RAAN250.1437
Inclination36.9732
Eccentricity0.0007286
Argument of Perigee287.5362
Mean Anonmoly72.4587
Mean Motion14.98327391
Decay Rate-4.9E-07
L11 44859U 19089H 20021.96916913 -.00000049 00000-0 25051-5 0 9998
L22 44859 36.9732 250.1437 0007286 287.5362 72.4587 14.98327391 6220

Live tracking and technical data element details for 2019-089H (NORAD 44859). 2019-089H can be tracked NOW for your location showing map with azimuth and elevation plus other details from your city location.

Track the satellite on the map from your city or location and see movement details for azimuth, elevation, latitude, longitude, range, height, and movement on the map or in text.







IsCatalogInMostPopularTable: catalog: 44859, numindb: 7
Update: records affected: 1



GetName: 44859 2019-089H

Hit Count: updated at: Fri, 24 Jan 2020 15:20:30 GMT